Hlavní strana
METAR-TAF:

METAR-TAF

Letiště :

Bellefontaine, Ohio, Spojené státy americké

zeměpisná šířka: 40-22-20N, zeměpisná délka: 083-49-08W, výška: 342 m

Aktuální stav počasí

Zpráva byla vytvořena před 41 minutami, v 18:15 UTC
Severoseverovýchodní vítr 6 kt
Teplota 3°C
Vlhkost vzduchu 30%
Tlak 1030 hPa
Viditelnost: 16.1 km
Jasno

METAR: KEDJ 071815Z AUTO 03006KT 10SM CLR 03/M13 A3041 RMK AO1

Čas: 13:56 (18:56 UTC)


TAF: chybějící

Stav a předpovědi počasí z více než 4 000 letišť (zprávy METAR a TAF).

Červené a žluté tečky na mapě představují dostupné meteorologické stanice.

Když kurzor umístíte na tečku, zobrazí se název stanice.

Pak kliknutím zobrazíte stav a předpověď počasí.

Chcete-li změnit mapu, kliknutím na zelené tlačítko se znaménkem +mapu přiblížíte, kliknutím na zelené tlačítko se znaménkem – mapu oddálíte a kliknutím na zelené šipky přejdete na sousední mapy.


METAR-TAF: